{"data":{"norad_id":68626,"intl_designator":"2026-073AA","name":"STARLINK-37285","alt_names":[],"object_type":"PAYLOAD","status":"ACTIVE","operator":null,"country":"US","launch_date":"2026-04-07","launch_site_code":"AFWTR","launch_vehicle":null,"mission":null,"orbit_class":"UNKNOWN","rcs_meters":null,"size_class":null,"mass_kg":null,"dimensions":null,"purposes":["comms"],"wikipedia_slug":null,"has_3d_model":false,"image_url":null,"decayed_at":null,"tle_current":{"epoch":"2026-09-20T03:49:14.397024Z","epoch_age_seconds":73420,"freshness":"FRESH","line1":"1 68626U 26073AA  26263.15919441  .00008620  00000+0  26900-3 0  9994","line2":"2 68626  97.2849 102.0207 0001822  91.1754 268.9698 15.33448836 25742","mean_motion":15.33448836,"eccentricity":0.0001822,"inclination_deg":97.2849,"raan_deg":102.0207,"arg_perigee_deg":91.1754,"mean_anomaly_deg":268.9698,"bstar":0.000269,"rev_number":2574,"period_min":93.905969745703,"perigee_km":464.28484481648,"apogee_km":466.77867771308,"semimajor_km":6843.6687612648,"source":"CELESTRAK","updated_at":"2026-09-20T09:00:43.948737Z"}}}